Thief River Falls, MN

2:29 AM CDT on October 01, 2016 (GMT -0500)
Thief River Falls Regional

Weather History for KTVF - October, 2012

Change the Weather History Date:

Friday, October 5, 2012

  Actual Average Record
Temperature  
Mean Temperature - -  
Max Temperature - 56 °F 87 °F (2011)
Min Temperature - 37 °F 24 °F (1991)
Moisture  
Dew Point -    
Average Humidity    
Maximum Humidity    
Minimum Humidity    
Precipitation  
Precipitation 0.00 in - - ()
Sea Level Pressure  
Sea Level Pressure 30.11 in    
Wind  
Wind Speed 21 mph (NW)    
Max Wind Speed 25 mph    
Max Gust Speed 33 mph    
Visibility 6 miles    
Events      
Averages and records for this station are not official NWS values.
T = Trace of Precipitation, MM = Missing Value Source: NWS Daily Summary

Daily Weather History Graph

Daily Weather History Graph

Search for Another Location

Airport or City:

Trip Planner

Search our weather history database for the weather conditions in past years. The results will help you decide how hot, cold, wet, or windy it might be!

Date:

Astronomy

Oct. 05, 2012 Rise Set
Actual Time 7:30 AM CDT 6:54 PM CDT
Civil Twilight 6:59 AM CDT 7:25 PM CDT
Nautical Twilight 6:23 AM CDT 8:01 PM CDT
Astronomical Twilight 5:46 AM CDT 8:37 PM CDT
Moon 9:57 PM CDT (10/5) 1:00 PM CDT (10/5)
Length of Visible Light 12h 26m
Length of Day
11h 24m
Waning Gibbous, 74% of the Moon is Illuminated
Oct 5
Waning Gibbous
Oct 8
Last Quarter
Oct 15
New
Oct 21
First Quarter
Oct 29
Full

Hourly Weather History & Observations

Time (CDT) Temp. Dew Point Humidity Pressure Visibility Wind Dir Wind Speed Gust Speed Precip Events Conditions
12:15 AM - - N/A% 30.05 in 7.0 mi WNW 23.0 mph 29.9 mph N/A   Overcast
12:35 AM - - N/A% 30.06 in 9.0 mi WNW 18.4 mph 31.1 mph N/A   Overcast
12:55 AM - - N/A% 30.06 in 10.0 mi WNW 25.3 mph 32.2 mph N/A   Overcast
1:15 AM - - N/A% 30.06 in 9.0 mi WNW 24.2 mph 33.4 mph N/A   Overcast
1:35 AM - - N/A% 30.06 in 10.0 mi WNW 25.3 mph 29.9 mph N/A   Overcast
1:55 AM - - N/A% 30.06 in 10.0 mi WNW 19.6 mph 31.1 mph N/A   Overcast
2:15 AM - - N/A% 30.05 in 10.0 mi WNW 24.2 mph 33.4 mph N/A   Overcast
2:35 AM - - N/A% 30.05 in 10.0 mi WNW 24.2 mph 31.1 mph N/A   Overcast
2:55 AM - - N/A% 30.05 in 5.0 mi WNW 23.0 mph 31.1 mph N/A   Overcast
3:15 AM - - N/A% 30.05 in 5.0 mi WNW 25.3 mph 32.2 mph N/A   Overcast
3:35 AM - - N/A% 30.05 in 4.0 mi WNW 21.9 mph 28.8 mph N/A   Overcast
3:55 AM - - N/A% 30.05 in 3.0 mi WNW 21.9 mph 29.9 mph N/A   Overcast
4:15 AM - - N/A% 30.04 in 3.0 mi WNW 21.9 mph - N/A   Overcast
4:35 AM - - N/A% 30.04 in 3.0 mi WNW 20.7 mph 32.2 mph N/A   Overcast
4:55 AM - - N/A% 30.05 in 2.5 mi WNW 23.0 mph - N/A   Overcast
5:15 AM - - N/A% 30.04 in 3.0 mi WNW 23.0 mph 31.1 mph N/A   Overcast
5:35 AM - - N/A% 30.04 in 3.0 mi WNW 23.0 mph 29.9 mph N/A   Overcast
5:55 AM - - N/A% 30.04 in 3.0 mi WNW 21.9 mph 28.8 mph N/A   Overcast
6:15 AM - - N/A% 30.04 in 4.0 mi WNW 23.0 mph 32.2 mph N/A   Overcast
6:35 AM - - N/A% 30.04 in 3.0 mi WNW 19.6 mph 29.9 mph N/A   Overcast
6:55 AM - - N/A% 30.04 in 3.0 mi WNW 23.0 mph 27.6 mph N/A   Overcast
7:15 AM - - N/A% 30.04 in 3.0 mi WNW 23.0 mph 28.8 mph N/A   Overcast
7:35 AM - - N/A% 30.04 in 2.0 mi WNW 20.7 mph 29.9 mph N/A   Overcast
7:55 AM - - N/A% 30.05 in 1.8 mi WNW 21.9 mph 28.8 mph N/A   Overcast
8:15 AM - - N/A% 30.05 in 2.0 mi WNW 23.0 mph 29.9 mph N/A   Overcast
8:35 AM - - N/A% 30.05 in 3.0 mi WNW 24.2 mph 28.8 mph N/A   Overcast
8:55 AM - - N/A% 30.06 in 2.0 mi WNW 20.7 mph 27.6 mph N/A   Overcast
9:15 AM - - N/A% 30.06 in 2.0 mi WNW 23.0 mph 28.8 mph N/A   Overcast
9:35 AM - - N/A% 30.07 in 1.5 mi WNW 20.7 mph 29.9 mph N/A   Overcast
9:55 AM - - N/A% 30.07 in 4.0 mi WNW 21.9 mph 26.5 mph N/A   Overcast
10:15 AM - - N/A% 30.07 in 1.5 mi WNW 18.4 mph 29.9 mph N/A   Overcast
10:35 AM - - N/A% - 1.2 mi North - - N/A   Overcast
10:55 AM - - N/A% 30.09 in 1.5 mi NW 20.7 mph 29.9 mph N/A   Overcast
11:35 AM - - N/A% 30.10 in 3.0 mi NW 20.7 mph 29.9 mph N/A   Overcast
11:55 AM - - N/A% 30.10 in 1.2 mi NW 24.2 mph 28.8 mph N/A   Overcast
12:15 PM - - N/A% 30.11 in 1.2 mi NW 21.9 mph 27.6 mph N/A   Overcast
12:35 PM - - N/A% 30.11 in 1.5 mi NW 20.7 mph 28.8 mph N/A   Overcast
12:55 PM - - N/A% 30.12 in 3.0 mi NW 23.0 mph 28.8 mph N/A   Overcast
1:35 PM - - N/A% 30.12 in 2.5 mi NW 21.9 mph 26.5 mph N/A   Overcast
1:55 PM - - N/A% 30.12 in 10.0 mi NW 24.2 mph 28.8 mph N/A   Overcast
2:15 PM - - N/A% 30.12 in 4.0 mi NW 23.0 mph - N/A   Overcast
2:35 PM - - N/A% 30.12 in 3.0 mi NW 19.6 mph - N/A   Overcast
2:55 PM - - N/A% 30.12 in 4.0 mi NW 21.9 mph 28.8 mph N/A   Overcast
3:15 PM - - N/A% 30.13 in 10.0 mi NW 19.6 mph - N/A   Overcast
3:35 PM - - N/A% 30.13 in 9.0 mi NW 18.4 mph - N/A   Overcast
3:55 PM - - N/A% 30.13 in 2.5 mi NW 20.7 mph 25.3 mph N/A   Overcast
4:15 PM - - N/A% 30.14 in 3.0 mi NW 17.3 mph 25.3 mph N/A   Overcast
4:35 PM - - N/A% 30.14 in 7.0 mi NW 18.4 mph - N/A   Overcast
4:55 PM - - N/A% 30.15 in 7.0 mi NW 17.3 mph - N/A   Overcast
5:15 PM - - N/A% 30.15 in 5.0 mi NW 16.1 mph - N/A   Overcast
5:35 PM - - N/A% 30.16 in 4.0 mi NW 15.0 mph - N/A   Overcast
5:55 PM - - N/A% 30.17 in 4.0 mi NW 16.1 mph - N/A   Overcast
6:15 PM - - N/A% 30.18 in 2.5 mi NNW 16.1 mph - N/A   Overcast
6:35 PM - - N/A% 30.18 in 10.0 mi NW 18.4 mph - N/A   Overcast
6:55 PM - - N/A% 30.19 in 7.0 mi NNW 16.1 mph - N/A   Overcast
7:15 PM - - N/A% 30.19 in 5.0 mi NNW 16.1 mph - N/A   Overcast
7:35 PM - - N/A% 30.20 in 9.0 mi NNW 17.3 mph - N/A   Overcast
7:55 PM - - N/A% 30.20 in 10.0 mi NNW 17.3 mph - N/A   Overcast
8:15 PM - - N/A% 30.21 in 10.0 mi NNW 16.1 mph 23.0 mph N/A   Overcast
8:35 PM - - N/A% 30.21 in 10.0 mi NNW 17.3 mph - N/A   Overcast
8:55 PM - - N/A% 30.22 in 10.0 mi NNW 16.1 mph - N/A   Overcast
9:15 PM - - N/A% 30.23 in 10.0 mi NNW 17.3 mph 23.0 mph N/A   Overcast
9:35 PM - - N/A% 30.23 in 10.0 mi NNW 13.8 mph 21.9 mph N/A   Overcast
9:55 PM - - N/A% 30.23 in 10.0 mi North 15.0 mph 21.9 mph N/A   Overcast
10:35 PM - - N/A% 30.24 in 10.0 mi NNW 16.1 mph - N/A   Mostly Cloudy
10:55 PM - - N/A% 30.24 in 10.0 mi NNW 12.7 mph - N/A   Overcast
11:15 PM - - N/A% 30.24 in 10.0 mi NNW 12.7 mph - N/A   Scattered Clouds
11:35 PM - - N/A% 30.24 in 10.0 mi NNW 15.0 mph - N/A   Partly Cloudy
11:55 PM - - N/A% 30.25 in 10.0 mi NNW 13.8 mph - N/A   Mostly Cloudy